Time,TemperatureF,DewpointF,PressureIn,WindDirection,WindDirectionDegrees,WindSpeedMPH,WindSpeedGustMPH,Humidity,HourlyPrecipIn,Conditions,Clouds,dailyrainin,SoftwareType,DateUTC
2013-04-02 00:00:00,52.0,45.0,29.68,South,174,0.0,0.0,77,0.00,,---,0.00,VWS V14.01,2013-04-02 07:00:00,
2013-04-02 00:05:00,52.0,45.3,29.68,SW,219,4.0,4.0,78,0.00,,---,0.00,VWS V14.01,2013-04-02 07:05:00,
2013-04-02 00:10:00,52.0,45.3,29.71,WNW,302,0.0,0.0,78,0.00,,---,0.00,VWS V14.01,2013-04-02 07:10:00,
2013-04-02 00:15:00,52.0,45.3,29.71,West,277,0.0,0.0,78,0.00,,---,0.00,VWS V14.01,2013-04-02 07:15:00,
2013-04-02 00:20:00,52.0,45.3,29.71,SSW,210,0.0,0.0,78,0.00,,---,0.00,VWS V14.01,2013-04-02 07:20:00,
2013-04-02 00:25:00,52.0,45.3,29.71,South,172,4.0,4.0,78,0.00,,---,0.00,VWS V14.01,2013-04-02 07:25:00,
2013-04-02 00:30:00,52.0,45.3,29.71,WNW,282,0.0,0.0,78,0.00,,---,0.00,VWS V14.01,2013-04-02 07:30:00,
2013-04-02 00:35:00,52.2,45.8,29.71,WSW,251,3.1,3.1,79,0.00,,---,0.00,VWS V14.01,2013-04-02 07:35:00,
2013-04-02 00:40:00,51.8,45.5,29.71,West,272,4.0,4.0,79,0.00,,---,0.00,VWS V14.01,2013-04-02 07:40:00,
2013-04-02 00:45:00,51.8,45.5,29.71,SW,223,2.2,2.2,79,0.00,,---,0.00,VWS V14.01,2013-04-02 07:45:00,
2013-04-02 00:50:00,52.0,45.7,29.71,SSW,212,2.2,2.2,79,0.00,,---,0.00,VWS V14.01,2013-04-02 07:50:00,
2013-04-02 00:55:00,51.8,45.8,29.71,WSW,258,3.1,3.1,80,0.00,,---,0.00,VWS V14.01,2013-04-02 07:55:00,
2013-04-02 01:00:00,51.8,45.8,29.71,West,270,3.6,3.6,80,0.00,,---,0.00,VWS V14.01,2013-04-02 08:00:00,
2013-04-02 01:05:00,51.8,45.8,29.71,South,172,0.0,0.0,80,0.00,,---,0.00,VWS V14.01,2013-04-02 08:05:00,
2013-04-02 01:10:00,51.8,45.8,29.71,SSE,155,3.1,3.1,80,0.00,,---,0.00,VWS V14.01,2013-04-02 08:10:00,
2013-04-02 01:15:00,51.8,45.8,29.71,West,272,3.6,3.6,80,0.00,,---,0.00,VWS V14.01,2013-04-02 08:15:00,
2013-04-02 01:20:00,51.8,45.8,29.71,SW,221,3.6,3.6,80,0.00,,---,0.00,VWS V14.01,2013-04-02 08:20:00,
2013-04-02 01:25:00,51.8,46.2,29.71,West,277,0.0,0.0,81,0.00,,---,0.00,VWS V14.01,2013-04-02 08:25:00,
2013-04-02 01:30:00,51.8,46.2,29.71,WSW,254,0.0,0.0,81,0.00,,---,0.00,VWS V14.01,2013-04-02 08:30:00,
2013-04-02 01:35:00,51.8,46.2,29.71,SW,214,2.7,2.7,81,0.00,,---,0.00,VWS V14.01,2013-04-02 08:35:00,
2013-04-02 01:40:00,52.0,46.3,29.71,WSW,243,0.0,0.0,81,0.00,,---,0.00,VWS V14.01,2013-04-02 08:40:00,
2013-04-02 01:45:00,51.8,46.2,29.71,WSW,243,0.0,0.0,81,0.00,,---,0.00,VWS V14.01,2013-04-02 08:45:00,
2013-04-02 01:50:00,51.8,46.2,29.71,WSW,243,0.0,0.0,81,0.00,,---,0.00,VWS V14.01,2013-04-02 08:50:00,
2013-04-02 01:55:00,52.0,46.0,29.71,SSE,150,0.0,0.0,80,0.00,,---,0.00,VWS V14.01,2013-04-02 08:55:00,
2013-04-02 02:00:00,52.0,46.0,29.71,SW,231,0.0,0.0,80,0.00,,---,0.00,VWS V14.01,2013-04-02 09:00:00,
2013-04-02 02:05:00,52.0,46.0,29.71,West,262,4.0,4.0,80,0.00,,---,0.00,VWS V14.01,2013-04-02 09:05:00,
2013-04-02 02:10:00,51.8,46.2,29.71,SW,221,0.0,0.0,81,0.00,,---,0.00,VWS V14.01,2013-04-02 09:10:00,
2013-04-02 02:15:00,52.0,46.3,29.71,SW,221,0.0,0.0,81,0.00,,---,0.00,VWS V14.01,2013-04-02 09:15:00,
2013-04-02 02:20:00,51.8,46.2,29.71,SSW,196,2.7,2.7,81,0.00,,---,0.00,VWS V14.01,2013-04-02 09:20:00,
2013-04-02 02:25:00,51.8,46.2,29.71,WNW,283,2.2,2.2,81,0.00,,---,0.00,VWS V14.01,2013-04-02 09:25:00,
2013-04-02 02:30:00,51.6,46.3,29.71,WSW,254,0.0,0.0,82,0.00,,---,0.00,VWS V14.01,2013-04-02 09:30:00,
2013-04-02 02:35:00,51.6,46.3,29.71,SE,126,2.7,2.7,82,0.00,,---,0.00,VWS V14.01,2013-04-02 09:35:00,
2013-04-02 02:40:00,51.6,46.3,29.71,SE,126,2.7,2.7,82,0.00,,---,0.00,VWS V14.01,2013-04-02 09:40:00,
2013-04-02 02:45:00,51.6,46.3,29.71,WSW,241,4.0,4.0,82,0.00,,---,0.00,VWS V14.01,2013-04-02 09:45:00,
2013-04-02 02:50:00,51.6,46.3,29.71,SSW,206,0.0,0.0,82,0.00,,---,0.00,VWS V14.01,2013-04-02 09:50:00,
2013-04-02 02:55:00,51.6,46.3,29.71,WNW,282,0.0,0.0,82,0.00,,---,0.00,VWS V14.01,2013-04-02 09:55:00,
2013-04-02 03:00:00,51.4,46.1,29.71,West,278,2.7,2.7,82,0.00,,---,0.00,VWS V14.01,2013-04-02 10:00:00,
2013-04-02 03:05:00,51.3,46.0,29.71,WSW,242,3.1,3.1,82,0.00,,---,0.00,VWS V14.01,2013-04-02 10:05:00,
2013-04-02 03:10:00,51.3,46.0,29.71,WNW,298,0.0,0.0,82,0.00,,---,0.00,VWS V14.01,2013-04-02 10:10:00,
2013-04-02 03:15:00,51.4,46.1,29.71,SW,219,0.0,0.0,82,0.00,,---,0.00,VWS V14.01,2013-04-02 10:15:00,
2013-04-02 03:20:00,51.4,46.1,29.71,SSW,204,0.0,0.0,82,0.00,,---,0.00,VWS V14.01,2013-04-02 10:20:00,
2013-04-02 03:25:00,51.4,46.1,29.71,SSW,204,0.0,0.0,82,0.00,,---,0.00,VWS V14.01,2013-04-02 10:25:00,
2013-04-02 03:30:00,51.3,46.0,29.71,SSW,204,0.0,0.0,82,0.00,,---,0.00,VWS V14.01,2013-04-02 10:30:00,
2013-04-02 03:35:00,51.4,46.1,29.71,SSW,204,0.0,0.0,82,0.00,,---,0.00,VWS V14.01,2013-04-02 10:35:00,
2013-04-02 03:40:00,51.4,46.1,29.71,SSW,204,0.0,0.0,82,0.00,,---,0.00,VWS V14.01,2013-04-02 10:40:00,
2013-04-02 03:45:00,51.3,46.0,29.71,SSW,204,0.0,0.0,82,0.00,,---,0.00,VWS V14.01,2013-04-02 10:45:00,
2013-04-02 03:50:00,51.3,46.0,29.71,SSW,204,0.0,0.0,82,0.00,,---,0.00,VWS V14.01,2013-04-02 10:50:00,
2013-04-02 03:55:00,51.3,46.0,29.71,SSW,204,0.0,0.0,82,0.00,,---,0.00,VWS V14.01,2013-04-02 10:55:00,
2013-04-02 04:00:00,51.3,46.0,29.71,SSW,204,0.0,0.0,82,0.00,,---,0.00,VWS V14.01,2013-04-02 11:00:00,
2013-04-02 04:05:00,51.4,45.8,29.71,SSW,204,0.0,0.0,81,0.00,,---,0.00,VWS V14.01,2013-04-02 11:05:00,
2013-04-02 04:10:00,51.3,46.0,29.71,SSW,204,0.0,0.0,82,0.00,,---,0.00,VWS V14.01,2013-04-02 11:10:00,
2013-04-02 04:15:00,51.3,46.0,29.71,SSW,204,0.0,0.0,82,0.00,,---,0.00,VWS V14.01,2013-04-02 11:15:00,
2013-04-02 04:20:00,51.3,46.0,29.71,SSW,204,0.0,0.0,82,0.00,,---,0.00,VWS V14.01,2013-04-02 11:20:00,
2013-04-02 04:25:00,51.3,46.0,29.71,SSW,204,0.0,0.0,82,0.00,,---,0.00,VWS V14.01,2013-04-02 11:25:00,
2013-04-02 04:30:00,51.3,46.0,29.71,SSW,204,0.0,0.0,82,0.00,,---,0.00,VWS V14.01,2013-04-02 11:30:00,
2013-04-02 04:35:00,51.3,46.0,29.71,SSW,204,0.0,0.0,82,0.00,,---,0.00,VWS V14.01,2013-04-02 11:35:00,
2013-04-02 04:40:00,51.3,46.0,29.71,SSW,204,0.0,0.0,82,0.00,,---,0.00,VWS V14.01,2013-04-02 11:40:00,
2013-04-02 04:45:00,51.1,45.5,29.71,SSW,204,0.0,0.0,81,0.00,,---,0.00,VWS V14.01,2013-04-02 11:45:00,
2013-04-02 04:50:00,51.1,45.8,29.71,SSW,204,0.0,0.0,82,0.00,,---,0.00,VWS V14.01,2013-04-02 11:50:00,
2013-04-02 04:55:00,50.9,45.6,29.71,WSW,248,0.0,0.0,82,0.00,,---,0.00,VWS V14.01,2013-04-02 11:55:00,
2013-04-02 05:00:00,51.1,45.8,29.71,West,279,0.0,0.0,82,0.00,,---,0.00,VWS V14.01,2013-04-02 12:00:00,
2013-04-02 05:05:00,50.9,45.6,29.71,West,263,2.7,2.7,82,0.00,,---,0.00,VWS V14.01,2013-04-02 12:05:00,
2013-04-02 05:10:00,50.7,45.8,29.71,West,264,2.7,2.7,83,0.00,,---,0.00,VWS V14.01,2013-04-02 12:10:00,
2013-04-02 05:15:00,50.5,45.6,29.71,WSW,240,0.0,0.0,83,0.00,,---,0.00,VWS V14.01,2013-04-02 12:15:00,
2013-04-02 05:20:00,50.7,45.8,29.71,WSW,240,0.0,0.0,83,0.00,,---,0.00,VWS V14.01,2013-04-02 12:20:00,
2013-04-02 05:25:00,50.5,45.9,29.71,SW,230,0.0,0.0,84,0.00,,---,0.00,VWS V14.01,2013-04-02 12:25:00,
2013-04-02 05:30:00,50.5,45.9,29.71,SSW,194,0.0,0.0,84,0.00,,---,0.00,VWS V14.01,2013-04-02 12:30:00,
2013-04-02 05:35:00,50.5,45.9,29.71,SSW,194,0.0,0.0,84,0.00,,---,0.00,VWS V14.01,2013-04-02 12:35:00,
2013-04-02 05:40:00,50.5,46.2,29.71,SSW,194,0.0,0.0,85,0.00,,---,0.00,VWS V14.01,2013-04-02 12:40:00,
2013-04-02 05:45:00,50.5,46.2,29.71,SSW,194,0.0,0.0,85,0.00,,---,0.00,VWS V14.01,2013-04-02 12:45:00,
2013-04-02 05:50:00,50.4,46.0,29.71,SSW,194,0.0,0.0,85,0.00,,---,0.00,VWS V14.01,2013-04-02 12:50:00,
2013-04-02 05:55:00,50.2,45.8,29.71,SSW,194,0.0,0.0,85,0.00,,---,0.00,VWS V14.01,2013-04-02 12:55:00,
2013-04-02 06:00:00,50.2,45.8,29.71,SSW,194,0.0,0.0,85,0.00,,---,0.00,VWS V14.01,2013-04-02 13:00:00,
2013-04-02 06:05:00,50.5,46.2,29.71,SSW,194,0.0,0.0,85,0.00,,---,0.00,VWS V14.01,2013-04-02 13:05:00,
2013-04-02 06:10:00,50.2,46.2,29.71,SSW,194,0.0,0.0,86,0.00,,---,0.00,VWS V14.01,2013-04-02 13:10:00,
2013-04-02 06:15:00,50.2,46.2,29.71,West,271,3.1,3.1,86,0.00,,---,0.00,VWS V14.01,2013-04-02 13:15:00,
2013-04-02 06:20:00,49.8,46.1,29.71,West,271,0.0,0.0,87,0.00,,---,0.00,VWS V14.01,2013-04-02 13:20:00,
2013-04-02 06:25:00,50.0,46.3,29.71,West,271,0.0,0.0,87,0.00,,---,0.00,VWS V14.01,2013-04-02 13:25:00,
2013-04-02 06:30:00,50.0,46.3,29.71,West,271,0.0,0.0,87,0.00,,---,0.00,VWS V14.01,2013-04-02 13:30:00,
2013-04-02 06:35:00,50.0,46.3,29.71,West,271,0.0,0.0,87,0.00,,---,0.00,VWS V14.01,2013-04-02 13:35:00,
2013-04-02 06:40:00,50.0,46.3,29.71,West,271,2.7,2.7,87,0.00,,---,0.00,VWS V14.01,2013-04-02 13:40:00,
2013-04-02 06:45:00,49.8,46.4,29.71,West,271,0.0,0.0,88,0.00,,---,0.00,VWS V14.01,2013-04-02 13:45:00,
2013-04-02 06:50:00,49.8,46.4,29.71,West,271,0.0,0.0,88,0.00,,---,0.00,VWS V14.01,2013-04-02 13:50:00,
2013-04-02 06:55:00,49.8,46.4,29.71,West,271,0.0,0.0,88,0.00,,---,0.00,VWS V14.01,2013-04-02 13:55:00,
2013-04-02 07:00:00,49.6,46.2,29.71,West,271,0.0,0.0,88,0.00,,---,0.00,VWS V14.01,2013-04-02 14:00:00,
2013-04-02 07:05:00,49.8,46.4,29.71,West,271,0.0,0.0,88,0.00,,---,0.00,VWS V14.01,2013-04-02 14:05:00,
2013-04-02 07:10:00,49.8,46.4,29.71,West,271,0.0,0.0,88,0.00,,---,0.00,VWS V14.01,2013-04-02 14:10:00,
2013-04-02 07:15:00,49.6,46.2,29.71,West,271,0.0,0.0,88,0.00,,---,0.00,VWS V14.01,2013-04-02 14:15:00,
2013-04-02 07:20:00,49.6,46.2,29.74,WSW,254,3.1,3.1,88,0.00,,---,0.00,VWS V14.01,2013-04-02 14:20:00,
2013-04-02 07:25:00,49.6,46.2,29.74,West,272,0.0,0.0,88,0.00,,---,0.00,VWS V14.01,2013-04-02 14:25:00,
2013-04-02 07:30:00,49.6,46.2,29.74,WSW,243,3.1,3.1,88,0.00,,---,0.00,VWS V14.01,2013-04-02 14:30:00,
2013-04-02 07:35:00,49.6,46.2,29.71,WSW,258,2.7,2.7,88,0.00,,---,0.00,VWS V14.01,2013-04-02 14:35:00,
2013-04-02 07:40:00,49.6,46.2,29.71,WSW,240,3.1,3.1,88,0.00,,---,0.00,VWS V14.01,2013-04-02 14:40:00,
2013-04-02 07:45:00,49.6,46.5,29.71,West,275,5.4,5.4,89,0.00,,---,0.00,VWS V14.01,2013-04-02 14:45:00,
2013-04-02 07:50:00,49.5,46.4,29.71,West,274,0.0,0.0,89,0.00,,---,0.00,VWS V14.01,2013-04-02 14:50:00,
2013-04-02 07:55:00,49.5,46.4,29.71,West,268,0.0,0.0,89,0.00,,---,0.00,VWS V14.01,2013-04-02 14:55:00,
2013-04-02 08:00:00,49.3,46.2,29.71,West,268,0.0,0.0,89,0.00,,---,0.00,VWS V14.01,2013-04-02 15:00:00,
2013-04-02 08:05:00,49.5,46.4,29.71,West,274,0.0,0.0,89,0.00,,---,0.00,VWS V14.01,2013-04-02 15:05:00,
2013-04-02 08:10:00,49.6,46.5,29.71,WNW,289,0.0,0.0,89,0.00,,---,0.00,VWS V14.01,2013-04-02 15:10:00,
2013-04-02 08:15:00,49.6,46.5,29.71,WNW,289,0.0,0.0,89,0.00,,---,0.00,VWS V14.01,2013-04-02 15:15:00,
2013-04-02 08:20:00,49.8,46.7,29.74,WNW,289,0.0,0.0,89,0.00,,---,0.00,VWS V14.01,2013-04-02 15:20:00,
2013-04-02 08:24:00,49.8,46.7,29.74,WNW,289,0.0,0.0,89,0.00,,---,0.00,VWS V14.01,2013-04-02 15:24:00,
2013-04-02 08:30:00,49.8,46.7,29.74,SW,225,0.0,0.0,89,0.00,,---,0.00,VWS V14.01,2013-04-02 15:30:00,
2013-04-02 08:35:00,50.0,46.6,29.74,SW,225,0.0,0.0,88,0.00,,---,0.00,VWS V14.01,2013-04-02 15:35:00,
2013-04-02 08:40:00,50.0,46.6,29.74,SW,225,0.0,0.0,88,0.00,,---,0.00,VWS V14.01,2013-04-02 15:40:00,
2013-04-02 08:45:00,50.0,46.6,29.74,SW,225,0.0,0.0,88,0.00,,---,0.00,VWS V14.01,2013-04-02 15:45:00,
2013-04-02 08:50:00,50.0,46.6,29.71,SW,225,0.0,0.0,88,0.00,,---,0.00,VWS V14.01,2013-04-02 15:50:00,
2013-04-02 08:55:00,49.8,46.7,29.71,SW,225,0.0,0.0,89,0.00,,---,0.00,VWS V14.01,2013-04-02 15:55:00,
2013-04-02 09:00:00,49.8,46.7,29.71,SW,225,0.0,0.0,89,0.00,,---,0.00,VWS V14.01,2013-04-02 16:00:00,
2013-04-02 09:05:00,50.2,46.8,29.74,SW,225,0.0,0.0,88,0.00,,---,0.00,VWS V14.01,2013-04-02 16:05:00,
2013-04-02 09:10:00,50.2,46.8,29.74,SW,225,0.0,0.0,88,0.00,,---,0.00,VWS V14.01,2013-04-02 16:10:00,
2013-04-02 09:15:00,50.2,46.8,29.74,SW,225,0.0,0.0,88,0.00,,---,0.00,VWS V14.01,2013-04-02 16:15:00,
2013-04-02 09:20:00,50.2,46.8,29.74,SW,225,0.0,0.0,88,0.00,,---,0.00,VWS V14.01,2013-04-02 16:20:00,
2013-04-02 09:25:00,50.5,47.1,29.74,SW,225,0.0,0.0,88,0.00,,---,0.00,VWS V14.01,2013-04-02 16:25:00,
2013-04-02 09:30:00,50.5,47.1,29.74,SW,225,0.0,0.0,88,0.00,,---,0.00,VWS V14.01,2013-04-02 16:30:00,
2013-04-02 09:35:00,50.5,47.1,29.71,South,173,0.0,0.0,88,0.00,,---,0.00,VWS V14.01,2013-04-02 16:35:00,
2013-04-02 09:40:00,50.7,47.3,29.71,South,173,0.0,0.0,88,0.00,,---,0.00,VWS V14.01,2013-04-02 16:40:00,
2013-04-02 09:45:00,50.7,47.3,29.71,South,173,0.0,0.0,88,0.00,,---,0.00,VWS V14.01,2013-04-02 16:45:00,
2013-04-02 09:50:00,50.9,47.5,29.71,SSW,207,0.0,0.0,88,0.00,,---,0.00,VWS V14.01,2013-04-02 16:50:00,
2013-04-02 09:55:00,50.9,47.5,29.71,SSW,207,0.0,0.0,88,0.00,,---,0.00,VWS V14.01,2013-04-02 16:55:00,
2013-04-02 10:00:00,50.9,47.5,29.71,SSW,207,0.0,0.0,88,0.00,,---,0.00,VWS V14.01,2013-04-02 17:00:00,
2013-04-02 10:05:00,50.9,47.5,29.71,SSW,207,0.0,0.0,88,0.00,,---,0.00,VWS V14.01,2013-04-02 17:05:00,
2013-04-02 10:10:00,51.1,47.7,29.71,SSW,207,0.0,0.0,88,0.00,,---,0.00,VWS V14.01,2013-04-02 17:10:00,
2013-04-02 10:15:00,51.1,47.7,29.71,SSE,167,0.0,0.0,88,0.00,,---,0.00,VWS V14.01,2013-04-02 17:15:00,
2013-04-02 10:20:00,51.1,47.7,29.74,SSE,167,0.0,0.0,88,0.00,,---,0.00,VWS V14.01,2013-04-02 17:20:00,
2013-04-02 10:25:00,51.4,47.7,29.74,SSE,167,0.0,0.0,87,0.00,,---,0.00,VWS V14.01,2013-04-02 17:25:00,
2013-04-02 10:30:00,51.4,47.7,29.74,South,191,0.0,0.0,87,0.00,,---,0.00,VWS V14.01,2013-04-02 17:30:00,
2013-04-02 10:35:00,51.1,47.0,29.74,South,186,0.0,0.0,86,0.00,,---,0.00,VWS V14.01,2013-04-02 17:35:00,
2013-04-02 10:40:00,51.1,47.0,29.74,South,186,0.0,0.0,86,0.00,,---,0.00,VWS V14.01,2013-04-02 17:40:00,
2013-04-02 10:45:00,51.3,47.2,29.74,South,185,0.0,0.0,86,0.00,,---,0.00,VWS V14.01,2013-04-02 17:45:00,
2013-04-02 10:50:00,51.3,47.2,29.74,SSW,200,0.0,0.0,86,0.00,,---,0.00,VWS V14.01,2013-04-02 17:50:00,
2013-04-02 10:55:00,51.3,47.2,29.74,SSE,152,0.0,0.0,86,0.00,,---,0.00,VWS V14.01,2013-04-02 17:55:00,
2013-04-02 11:00:00,51.3,47.2,29.74,ENE,73,0.0,0.0,86,0.00,,---,0.00,VWS V14.01,2013-04-02 18:00:00,
2013-04-02 11:05:00,51.3,46.9,29.74,ESE,106,0.0,0.0,85,0.00,,---,0.00,VWS V14.01,2013-04-02 18:05:00,
2013-04-02 11:10:00,51.4,47.1,29.74,ESE,106,0.0,0.0,85,0.00,,---,0.00,VWS V14.01,2013-04-02 18:10:00,
2013-04-02 11:15:00,51.4,47.1,29.74,SW,224,0.0,2.7,85,0.00,,---,0.00,VWS V14.01,2013-04-02 18:15:00,
2013-04-02 11:20:00,51.4,47.1,29.74,SW,224,0.0,0.0,85,0.00,,---,0.00,VWS V14.01,2013-04-02 18:20:00,
2013-04-02 11:25:00,51.4,47.1,29.74,WSW,239,2.2,2.2,85,0.00,,---,0.00,VWS V14.01,2013-04-02 18:25:00,
2013-04-02 11:30:00,51.4,47.1,29.74,WSW,252,0.0,0.0,85,0.00,,---,0.00,VWS V14.01,2013-04-02 18:30:00,
2013-04-02 11:35:00,51.4,47.1,29.74,WSW,252,0.0,2.7,85,0.00,,---,0.00,VWS V14.01,2013-04-02 18:35:00,
2013-04-02 11:40:00,51.6,47.3,29.74,WSW,252,0.0,0.0,85,0.00,,---,0.00,VWS V14.01,2013-04-02 18:40:00,
2013-04-02 11:45:00,51.6,47.3,29.74,WSW,252,0.0,0.0,85,0.00,,---,0.00,VWS V14.01,2013-04-02 18:45:00,
2013-04-02 11:50:00,51.8,47.1,29.74,WSW,252,0.0,0.0,84,0.00,,---,0.00,VWS V14.01,2013-04-02 18:50:00,
2013-04-02 11:55:00,52.0,47.3,29.74,WSW,246,0.0,0.0,84,0.00,,---,0.00,VWS V14.01,2013-04-02 18:55:00,
2013-04-02 12:00:00,52.0,47.3,29.74,WSW,255,2.7,2.7,84,0.00,,---,0.00,VWS V14.01,2013-04-02 19:00:00,
2013-04-02 12:05:00,52.2,47.5,29.74,WSW,239,3.1,3.1,84,0.00,,---,0.00,VWS V14.01,2013-04-02 19:05:00,
2013-04-02 12:10:00,52.2,47.5,29.74,WSW,254,0.0,0.0,84,0.00,,---,0.00,VWS V14.01,2013-04-02 19:10:00,
2013-04-02 12:15:00,52.2,47.5,29.74,WSW,254,0.0,0.0,84,0.00,,---,0.00,VWS V14.01,2013-04-02 19:15:00,
2013-04-02 12:20:00,52.2,47.5,29.74,WSW,246,2.7,3.6,84,0.00,,---,0.00,VWS V14.01,2013-04-02 19:20:00,
2013-04-02 12:25:00,52.2,47.5,29.74,WSW,258,0.0,2.7,84,0.00,,---,0.00,VWS V14.01,2013-04-02 19:25:00,
2013-04-02 12:30:00,52.0,47.3,29.74,WSW,256,0.0,0.0,84,0.00,,---,0.00,VWS V14.01,2013-04-02 19:30:00,
2013-04-02 12:35:00,52.0,47.3,29.74,WSW,256,2.2,2.2,84,0.00,,---,0.00,VWS V14.01,2013-04-02 19:35:00,
2013-04-02 12:40:00,52.2,47.5,29.74,WSW,256,2.2,2.2,84,0.00,,---,0.00,VWS V14.01,2013-04-02 19:40:00,
2013-04-02 12:45:00,52.3,47.7,29.74,SSE,147,2.2,3.1,84,0.00,,---,0.00,VWS V14.01,2013-04-02 19:45:00,
2013-04-02 12:50:00,52.3,47.7,29.74,ESE,108,0.0,0.0,84,0.00,,---,0.00,VWS V14.01,2013-04-02 19:50:00,
2013-04-02 12:55:00,52.3,47.7,29.74,WSW,237,2.7,2.7,84,0.00,,---,0.00,VWS V14.01,2013-04-02 19:55:00,
2013-04-02 13:00:00,52.5,47.8,29.74,SSE,164,2.7,2.7,84,0.00,,---,0.00,VWS V14.01,2013-04-02 20:00:00,
2013-04-02 13:05:00,52.5,47.8,29.74,SW,233,0.0,0.0,84,0.00,,---,0.00,VWS V14.01,2013-04-02 20:05:00,
2013-04-02 13:11:00,53.1,48.0,29.74,SW,218,2.7,2.7,83,0.00,,---,0.00,VWS V14.01,2013-04-02 20:11:00,
2013-04-02 13:16:00,53.2,48.2,29.74,WSW,252,2.7,2.7,83,0.00,,---,0.00,VWS V14.01,2013-04-02 20:16:00,
2013-04-02 13:21:00,53.6,48.6,29.74,WSW,243,3.1,3.1,83,0.00,,---,0.00,VWS V14.01,2013-04-02 20:21:00,
2013-04-02 13:26:00,53.6,48.6,29.74,WSW,241,3.1,3.1,83,0.00,,---,0.00,VWS V14.01,2013-04-02 20:26:00,
2013-04-02 13:31:00,53.8,48.4,29.74,WSW,250,4.0,4.0,82,0.00,,---,0.00,VWS V14.01,2013-04-02 20:31:00,
2013-04-02 13:36:00,54.0,47.9,29.74,NW,306,3.1,3.1,80,0.00,,---,0.00,VWS V14.01,2013-04-02 20:36:00,
2013-04-02 13:41:00,54.1,48.1,29.74,WSW,245,4.9,4.9,80,0.00,,---,0.00,VWS V14.01,2013-04-02 20:41:00,
2013-04-02 13:46:00,54.1,48.1,29.74,South,182,2.2,2.2,80,0.00,,---,0.00,VWS V14.01,2013-04-02 20:46:00,
2013-04-02 13:51:00,54.3,48.3,29.74,SSE,157,2.2,2.2,80,0.00,,---,0.00,VWS V14.01,2013-04-02 20:51:00,
2013-04-02 13:56:00,54.5,48.1,29.74,East,97,2.7,2.7,79,0.00,,---,0.00,VWS V14.01,2013-04-02 20:56:00,
2013-04-02 14:01:00,54.5,48.1,29.74,SW,227,3.1,3.1,79,0.00,,---,0.00,VWS V14.01,2013-04-02 21:01:00,
2013-04-02 14:06:00,54.7,48.0,29.74,South,175,0.0,0.0,78,0.00,,---,0.00,VWS V14.01,2013-04-02 21:06:00,
2013-04-02 14:11:00,54.7,47.3,29.74,WSW,249,2.7,2.7,76,0.00,,---,0.00,VWS V14.01,2013-04-02 21:11:00,
2013-04-02 14:16:00,54.7,47.3,29.74,SW,222,3.6,3.6,76,0.00,,---,0.00,VWS V14.01,2013-04-02 21:16:00,
2013-04-02 14:21:00,54.7,47.3,29.74,SW,226,0.0,0.0,76,0.00,,---,0.00,VWS V14.01,2013-04-02 21:21:00,
2013-04-02 14:26:00,54.9,47.1,29.74,WSW,243,3.1,3.1,75,0.00,,---,0.00,VWS V14.01,2013-04-02 21:26:00,
2013-04-02 14:31:00,54.9,47.1,29.74,SW,234,0.0,0.0,75,0.00,,---,0.00,VWS V14.01,2013-04-02 21:31:00,
2013-04-02 14:36:00,54.9,47.1,29.74,WSW,252,3.6,3.6,75,0.00,,---,0.00,VWS V14.01,2013-04-02 21:36:00,
2013-04-02 14:41:00,54.5,46.8,29.74,SSW,196,2.2,2.7,75,0.00,,---,0.00,VWS V14.01,2013-04-02 21:41:00,
2013-04-02 14:46:00,54.5,46.8,29.74,South,173,2.7,2.7,75,0.00,,---,0.00,VWS V14.01,2013-04-02 21:46:00,
2013-04-02 14:51:00,54.7,46.9,29.74,South,173,0.0,0.0,75,0.00,,---,0.00,VWS V14.01,2013-04-02 21:51:00,
2013-04-02 14:56:00,54.7,46.9,29.74,WNW,285,2.2,2.2,75,0.00,,---,0.00,VWS V14.01,2013-04-02 21:56:00,
2013-04-02 15:01:00,54.7,47.3,29.74,North,353,0.0,0.0,76,0.00,,---,0.00,VWS V14.01,2013-04-02 22:01:00,
2013-04-02 15:06:00,54.7,47.3,29.74,SSE,150,0.0,0.0,76,0.00,,---,0.00,VWS V14.01,2013-04-02 22:06:00,
2013-04-02 15:11:00,54.5,47.1,29.74,SW,218,2.2,2.2,76,0.00,,---,0.00,VWS V14.01,2013-04-02 22:11:00,
2013-04-02 15:16:00,54.5,47.1,29.74,South,172,0.0,0.0,76,0.00,,---,0.00,VWS V14.01,2013-04-02 22:16:00,
2013-04-02 15:21:00,54.5,47.1,29.74,SE,144,2.7,2.7,76,0.00,,---,0.00,VWS V14.01,2013-04-02 22:21:00,
2013-04-02 15:26:00,54.5,47.5,29.74,South,179,2.2,2.2,77,0.00,,---,0.00,VWS V14.01,2013-04-02 22:26:00,
2013-04-02 15:31:00,54.5,47.5,29.74,SSE,147,0.0,0.0,77,0.00,,---,0.00,VWS V14.01,2013-04-02 22:31:00,
2013-04-02 15:36:00,54.7,47.3,29.74,SW,220,0.0,0.0,76,0.00,,---,0.00,VWS V14.01,2013-04-02 22:36:00,
2013-04-02 15:41:00,54.7,47.3,29.74,WSW,244,3.1,3.1,76,0.00,,---,0.00,VWS V14.01,2013-04-02 22:41:00,
2013-04-02 15:46:00,54.7,47.3,29.74,SE,132,2.2,2.2,76,0.00,,---,0.00,VWS V14.01,2013-04-02 22:46:00,
2013-04-02 15:52:00,54.7,47.3,29.71,SSW,204,0.0,0.0,76,0.00,,---,0.00,VWS V14.01,2013-04-02 22:52:00,
2013-04-02 15:57:00,54.7,47.3,29.71,ENE,59,0.0,0.0,76,0.00,,---,0.00,VWS V14.01,2013-04-02 22:57:00,
2013-04-02 16:02:00,54.7,47.3,29.71,NE,56,2.7,2.7,76,0.00,,---,0.00,VWS V14.01,2013-04-02 23:02:00,
2013-04-02 16:07:00,54.7,47.3,29.71,WSW,239,2.2,2.2,76,0.00,,---,0.00,VWS V14.01,2013-04-02 23:07:00,
2013-04-02 16:12:00,54.7,47.3,29.71,ENE,69,0.0,0.0,76,0.00,,---,0.00,VWS V14.01,2013-04-02 23:12:00,
2013-04-02 16:17:00,54.7,47.3,29.71,ESE,120,2.2,2.2,76,0.00,,---,0.00,VWS V14.01,2013-04-02 23:17:00,
2013-04-02 16:22:00,54.5,47.1,29.71,NE,56,0.0,0.0,76,0.00,,---,0.00,VWS V14.01,2013-04-02 23:22:00,
2013-04-02 16:27:00,54.5,47.5,29.71,SW,224,0.0,0.0,77,0.00,,---,0.00,VWS V14.01,2013-04-02 23:27:00,
2013-04-02 16:33:00,54.5,47.1,29.71,ENE,77,0.0,0.0,76,0.00,,---,0.00,VWS V14.01,2013-04-02 23:33:00,
2013-04-02 16:38:00,54.5,47.1,29.71,ENE,77,2.7,2.7,76,0.00,,---,0.00,VWS V14.01,2013-04-02 23:38:00,
2013-04-02 16:42:00,54.5,47.1,29.71,ESE,102,0.0,0.0,76,0.00,,---,0.00,VWS V14.01,2013-04-02 23:42:00,
2013-04-02 16:47:00,54.5,47.1,29.71,SSE,153,0.0,0.0,76,0.00,,---,0.00,VWS V14.01,2013-04-02 23:47:00,
2013-04-02 16:53:00,54.7,47.3,29.71,SSE,153,0.0,0.0,76,0.00,,---,0.00,VWS V14.01,2013-04-02 23:53:00,
2013-04-02 16:58:00,54.9,47.5,29.71,SSE,153,0.0,0.0,76,0.00,,---,0.00,VWS V14.01,2013-04-02 23:58:00,
2013-04-02 17:03:00,54.9,47.5,29.71,South,184,0.0,0.0,76,0.00,,---,0.00,VWS V14.01,2013-04-03 00:03:00,
2013-04-02 17:08:00,55.0,47.6,29.71,South,184,0.0,0.0,76,0.00,,---,0.00,VWS V14.01,2013-04-03 00:08:00,
2013-04-02 17:13:00,55.2,47.8,29.71,South,176,3.6,3.6,76,0.00,,---,0.00,VWS V14.01,2013-04-03 00:13:00,
2013-04-02 17:18:00,55.2,47.5,29.71,WSW,237,2.7,2.7,75,0.00,,---,0.00,VWS V14.01,2013-04-03 00:18:00,
2013-04-02 17:23:00,55.2,47.5,29.71,SE,145,0.0,0.0,75,0.00,,---,0.00,VWS V14.01,2013-04-03 00:23:00,
2013-04-02 17:28:00,55.0,47.3,29.71,SE,145,0.0,0.0,75,0.00,,---,0.00,VWS V14.01,2013-04-03 00:28:00,
2013-04-02 17:33:00,55.0,47.3,29.71,ENE,78,0.0,0.0,75,0.00,,---,0.00,VWS V14.01,2013-04-03 00:33:00,
2013-04-02 17:38:00,55.2,47.5,29.71,South,176,0.0,0.0,75,0.00,,---,0.00,VWS V14.01,2013-04-03 00:38:00,
2013-04-02 17:43:00,55.2,47.8,29.71,SE,139,0.0,0.0,76,0.00,,---,0.00,VWS V14.01,2013-04-03 00:43:00,
2013-04-02 17:48:00,55.0,47.6,29.71,East,94,0.0,0.0,76,0.00,,---,0.00,VWS V14.01,2013-04-03 00:48:00,
2013-04-02 17:53:00,55.0,47.6,29.71,ESE,116,0.0,0.0,76,0.00,,---,0.00,VWS V14.01,2013-04-03 00:53:00,
2013-04-02 17:58:00,55.0,48.0,29.71,ESE,116,0.0,0.0,77,0.00,,---,0.00,VWS V14.01,2013-04-03 00:58:00,
2013-04-02 18:03:00,55.2,48.2,29.71,ESE,116,0.0,0.0,77,0.00,,---,0.00,VWS V14.01,2013-04-03 01:03:00,
2013-04-02 18:08:00,55.2,48.2,29.71,ESE,116,0.0,0.0,77,0.00,,---,0.00,VWS V14.01,2013-04-03 01:08:00,
2013-04-02 18:13:00,55.0,48.0,29.71,East,99,0.0,0.0,77,0.00,,---,0.00,VWS V14.01,2013-04-03 01:13:00,
2013-04-02 18:18:00,55.0,48.0,29.71,NE,52,0.0,0.0,77,0.00,,---,0.00,VWS V14.01,2013-04-03 01:18:00,
2013-04-02 18:23:00,54.9,48.1,29.71,NE,52,0.0,0.0,78,0.00,,---,0.00,VWS V14.01,2013-04-03 01:23:00,
2013-04-02 18:28:00,54.9,48.1,29.71,East,79,0.0,0.0,78,0.00,,---,0.00,VWS V14.01,2013-04-03 01:28:00,
2013-04-02 18:33:00,54.9,48.1,29.68,SE,140,0.0,0.0,78,0.00,,---,0.00,VWS V14.01,2013-04-03 01:33:00,
2013-04-02 18:38:00,54.7,48.0,29.68,SE,139,0.0,0.0,78,0.00,,---,0.00,VWS V14.01,2013-04-03 01:38:00,
2013-04-02 18:43:00,54.9,48.1,29.68,SE,140,0.0,0.0,78,0.00,,---,0.00,VWS V14.01,2013-04-03 01:43:00,
2013-04-02 18:48:00,54.7,48.0,29.68,SE,139,0.0,0.0,78,0.00,,---,0.00,VWS V14.01,2013-04-03 01:48:00,
2013-04-02 18:53:00,54.7,48.0,29.68,SE,139,0.0,0.0,78,0.00,,---,0.00,VWS V14.01,2013-04-03 01:53:00,
2013-04-02 18:58:00,54.7,48.3,29.68,SE,140,0.0,0.0,79,0.00,,---,0.00,VWS V14.01,2013-04-03 01:58:00,
2013-04-02 19:03:00,54.5,48.1,29.68,SE,140,0.0,0.0,79,0.00,,---,0.00,VWS V14.01,2013-04-03 02:03:00,
2013-04-02 19:08:00,54.5,48.1,29.68,SE,140,0.0,0.0,79,0.00,,---,0.00,VWS V14.01,2013-04-03 02:08:00,
2013-04-02 19:13:00,54.3,48.3,29.68,SE,139,0.0,0.0,80,0.00,,---,0.00,VWS V14.01,2013-04-03 02:13:00,
2013-04-02 19:18:00,54.5,48.5,29.68,SE,140,0.0,0.0,80,0.00,,---,0.00,VWS V14.01,2013-04-03 02:18:00,
2013-04-02 19:23:00,54.5,48.5,29.68,SE,140,0.0,0.0,80,0.00,,---,0.00,VWS V14.01,2013-04-03 02:23:00,
2013-04-02 19:28:00,54.1,48.1,29.68,SE,140,0.0,0.0,80,0.00,,---,0.00,VWS V14.01,2013-04-03 02:28:00,
2013-04-02 19:33:00,54.0,48.3,29.68,SE,140,0.0,0.0,81,0.00,,---,0.00,VWS V14.01,2013-04-03 02:33:00,
2013-04-02 19:38:00,54.0,48.3,29.68,SE,140,0.0,0.0,81,0.00,,---,0.00,VWS V14.01,2013-04-03 02:38:00,
2013-04-02 19:43:00,53.8,48.1,29.68,SE,140,0.0,0.0,81,0.00,,---,0.00,VWS V14.01,2013-04-03 02:43:00,
2013-04-02 19:48:00,54.0,48.3,29.68,SE,140,0.0,0.0,81,0.00,,---,0.00,VWS V14.01,2013-04-03 02:48:00,
2013-04-02 19:53:00,53.8,48.1,29.68,SE,140,0.0,0.0,81,0.00,,---,0.00,VWS V14.01,2013-04-03 02:53:00,
2013-04-02 19:58:00,53.8,48.1,29.68,SE,140,0.0,0.0,81,0.00,,---,0.00,VWS V14.01,2013-04-03 02:58:00,
2013-04-02 20:03:00,53.6,47.9,29.68,SE,140,0.0,0.0,81,0.00,,---,0.00,VWS V14.01,2013-04-03 03:03:00,
2013-04-02 20:08:00,53.4,48.1,29.68,SE,140,0.0,0.0,82,0.00,,---,0.00,VWS V14.01,2013-04-03 03:08:00,
2013-04-02 20:13:00,53.2,48.2,29.68,SE,140,0.0,0.0,83,0.00,,---,0.00,VWS V14.01,2013-04-03 03:13:00,
2013-04-02 20:18:00,53.1,48.0,29.68,SE,140,0.0,0.0,83,0.00,,---,0.00,VWS V14.01,2013-04-03 03:18:00,
2013-04-02 20:23:00,53.1,48.0,29.68,SE,140,0.0,0.0,83,0.00,,---,0.00,VWS V14.01,2013-04-03 03:23:00,
2013-04-02 20:28:00,53.1,48.0,29.68,SE,140,0.0,0.0,83,0.00,,---,0.00,VWS V14.01,2013-04-03 03:28:00,
2013-04-02 20:33:00,53.1,48.0,29.71,SE,140,0.0,0.0,83,0.00,,---,0.00,VWS V14.01,2013-04-03 03:33:00,
2013-04-02 20:38:00,52.9,48.2,29.71,SE,140,0.0,0.0,84,0.00,,---,0.00,VWS V14.01,2013-04-03 03:38:00,
2013-04-02 20:43:00,52.7,48.0,29.71,SE,140,0.0,0.0,84,0.00,,---,0.00,VWS V14.01,2013-04-03 03:43:00,
2013-04-02 20:48:00,52.7,48.0,29.71,SE,140,0.0,0.0,84,0.00,,---,0.00,VWS V14.01,2013-04-03 03:48:00,
2013-04-02 20:53:00,52.7,48.0,29.71,SE,140,0.0,0.0,84,0.00,,---,0.00,VWS V14.01,2013-04-03 03:53:00,
2013-04-02 20:58:00,52.5,48.2,29.71,SE,140,0.0,0.0,85,0.00,,---,0.00,VWS V14.01,2013-04-03 03:58:00,
2013-04-02 21:00:00,52.5,48.2,29.71,SE,140,0.0,0.0,85,0.00,,---,0.00,VWS V14.01,2013-04-03 04:00:00,
2013-04-02 21:05:00,52.5,48.2,29.71,SE,140,0.0,0.0,85,0.00,,---,0.00,VWS V14.01,2013-04-03 04:05:00,
2013-04-02 21:10:00,52.5,48.2,29.71,SE,140,0.0,0.0,85,0.00,,---,0.00,VWS V14.01,2013-04-03 04:10:00,
2013-04-02 21:15:00,52.3,48.0,29.71,SE,140,0.0,0.0,85,0.00,,---,0.00,VWS V14.01,2013-04-03 04:15:00,
2013-04-02 21:20:00,52.3,47.7,29.71,SE,140,0.0,0.0,84,0.00,,---,0.00,VWS V14.01,2013-04-03 04:20:00,
2013-04-02 21:25:00,52.3,47.7,29.71,SE,140,0.0,0.0,84,0.00,,---,0.00,VWS V14.01,2013-04-03 04:25:00,
2013-04-02 21:30:00,52.2,47.5,29.71,SE,140,0.0,0.0,84,0.00,,---,0.00,VWS V14.01,2013-04-03 04:30:00,
2013-04-02 21:35:00,52.2,47.5,29.71,SE,140,0.0,0.0,84,0.00,,---,0.00,VWS V14.01,2013-04-03 04:35:00,
2013-04-02 21:40:00,52.2,47.8,29.71,SE,140,0.0,0.0,85,0.00,,---,0.00,VWS V14.01,2013-04-03 04:40:00,
2013-04-02 21:45:00,52.0,47.6,29.71,SE,140,0.0,0.0,85,0.00,,---,0.00,VWS V14.01,2013-04-03 04:45:00,
2013-04-02 21:50:00,52.0,47.6,29.71,SE,140,0.0,0.0,85,0.00,,---,0.00,VWS V14.01,2013-04-03 04:50:00,
2013-04-02 21:55:00,51.8,47.4,29.71,SE,140,0.0,0.0,85,0.00,,---,0.00,VWS V14.01,2013-04-03 04:55:00,
2013-04-02 22:00:00,51.8,47.8,29.71,SE,140,0.0,0.0,86,0.00,,---,0.00,VWS V14.01,2013-04-03 05:00:00,
2013-04-02 22:05:00,52.0,47.6,29.71,SE,140,0.0,0.0,85,0.00,,---,0.00,VWS V14.01,2013-04-03 05:05:00,
2013-04-02 22:10:00,52.0,47.6,29.71,SE,140,0.0,0.0,85,0.00,,---,0.00,VWS V14.01,2013-04-03 05:10:00,
2013-04-02 22:15:00,52.0,47.9,29.71,SE,140,0.0,0.0,86,0.00,,---,0.00,VWS V14.01,2013-04-03 05:15:00,
2013-04-02 22:20:00,52.0,47.9,29.71,SE,140,0.0,0.0,86,0.00,,---,0.00,VWS V14.01,2013-04-03 05:20:00,
2013-04-02 22:25:00,52.0,47.9,29.71,SE,140,0.0,0.0,86,0.00,,---,0.00,VWS V14.01,2013-04-03 05:25:00,
2013-04-02 22:30:00,51.8,47.8,29.71,SE,140,0.0,0.0,86,0.00,,---,0.00,VWS V14.01,2013-04-03 05:30:00,
2013-04-02 22:35:00,51.8,48.1,29.71,SE,140,0.0,0.0,87,0.00,,---,0.00,VWS V14.01,2013-04-03 05:35:00,
2013-04-02 22:40:00,51.8,48.1,29.71,SE,140,0.0,0.0,87,0.00,,---,0.00,VWS V14.01,2013-04-03 05:40:00,
2013-04-02 22:45:00,51.8,47.8,29.71,SE,140,0.0,0.0,86,0.00,,---,0.00,VWS V14.01,2013-04-03 05:45:00,
2013-04-02 22:50:00,51.8,47.8,29.71,SE,140,0.0,0.0,86,0.00,,---,0.00,VWS V14.01,2013-04-03 05:50:00,
2013-04-02 22:55:00,51.8,47.4,29.71,SE,140,0.0,0.0,85,0.00,,---,0.00,VWS V14.01,2013-04-03 05:55:00,
2013-04-02 23:00:00,51.6,47.6,29.71,SE,140,0.0,0.0,86,0.00,,---,0.00,VWS V14.01,2013-04-03 06:00:00,
2013-04-02 23:05:00,51.4,47.4,29.71,SE,140,0.0,0.0,86,0.00,,---,0.00,VWS V14.01,2013-04-03 06:05:00,
2013-04-02 23:10:00,51.4,47.4,29.71,SE,140,0.0,0.0,86,0.00,,---,0.00,VWS V14.01,2013-04-03 06:10:00,
2013-04-02 23:15:00,51.4,47.7,29.71,SE,140,0.0,0.0,87,0.00,,---,0.00,VWS V14.01,2013-04-03 06:15:00,
2013-04-02 23:20:00,51.3,47.5,29.71,SE,140,0.0,0.0,87,0.00,,---,0.00,VWS V14.01,2013-04-03 06:20:00,
2013-04-02 23:25:00,51.3,47.5,29.71,SE,140,0.0,0.0,87,0.00,,---,0.00,VWS V14.01,2013-04-03 06:25:00,
2013-04-02 23:30:00,51.1,47.3,29.71,SE,140,0.0,0.0,87,0.00,,---,0.00,VWS V14.01,2013-04-03 06:30:00,
2013-04-02 23:35:00,51.1,47.3,29.71,SE,140,0.0,0.0,87,0.00,,---,0.00,VWS V14.01,2013-04-03 06:35:00,
2013-04-02 23:40:00,50.7,47.0,29.71,SE,140,0.0,0.0,87,0.00,,---,0.00,VWS V14.01,2013-04-03 06:40:00,
2013-04-02 23:45:00,50.5,46.8,29.71,SE,140,0.0,0.0,87,0.00,,---,0.00,VWS V14.01,2013-04-03 06:45:00,
2013-04-02 23:50:00,50.5,46.8,29.71,SE,140,0.0,0.0,87,0.00,,---,0.00,VWS V14.01,2013-04-03 06:50:00,
2013-04-02 23:55:00,50.5,46.8,29.71,SE,140,0.0,0.0,87,0.00,,---,0.00,VWS V14.01,2013-04-03 06:55:00,